Tracking 23611 objects as of 18-Sep-2021
HD Live streaming from Space Station
objects crossing your sky now
Track INSPIRATION-4

STARLINK-1659

Track STARLINK-1659 now!
10-day predictions
STARLINK-1659 is classified as:


NORAD ID: 46534
Int'l Code: 2020-070C
Perigee: 553.9 km
Apogee: 554.9 km
Inclination: 53.1 °
Period: 95.6 minutes
Semi major axis: 6925 km
RCS: Unknown
Launch date: October 6, 2020
Source: United States (US)
Launch site: AIR FORCE EASTERN TEST RANGE (AFETR)
aabbcc
Your satellite tracking list
Your tracking list is empty




NASA's NSSDC Master Catalog

Two Line Element Set (TLE):
1 46534U 20070C   21260.55206489  .00000168  00000-0  30150-4 0  9999
2 46534  53.0535 312.5576 0000741  96.9738 263.1335 15.06385755 53206
Source of the keplerian elements: AFSPC